{"data":{"norad_id":65891,"epoch":"2026-05-24T22:31:46.651296Z","epoch_age_seconds":80356,"freshness":"FRESH","line1":"1 65891U 25224K   26144.93873439  .00007569  00000+0  26739-3 0  9993","line2":"2 65891  53.1588  17.5141 0001204  97.6523 262.4614 15.30201145 36544","mean_motion":15.30201145,"eccentricity":0.0001204,"inclination_deg":53.1588,"raan_deg":17.5141,"arg_perigee_deg":97.6523,"mean_anomaly_deg":262.4614,"bstar":0.00026739,"rev_number":3654,"period_min":94.105275290459,"perigee_km":474.3865074803,"apogee_km":476.03679383538,"semimajor_km":6853.3486506578,"source":"CELESTRAK","updated_at":"2026-05-25T13:38:20.980735Z"}}